Chicago Executive, IL

5:43 AM CST on November 21, 2019 (GMT -0600)
Chicago Executive

Weather History for KPWK - October, 2019

Change the Weather History Date:

Tuesday, October 22, 2019

  Actual Average Record
Temperature  
Mean Temperature 50 °F 50 °F  
Max Temperature 53 °F 59 °F 70 °F (2017)
Min Temperature 46 °F 41 °F 31 °F (2013)
Degree Days  
Heating Degree Days 16 15  
Month to date heating degree days 222 258  
Since 1 July heating degree days 229 370  
Cooling Degree Days 0 0  
Month to date cooling degree days 13 11  
Year to date cooling degree days 996 789  
Moisture  
Dew Point 37 °F    
Average Humidity 62    
Maximum Humidity 74    
Minimum Humidity 48    
Precipitation  
Precipitation 0.02 in 0.10 in 1.12 in (2009)
Month to date precipitation 2.40 2.15  
Year to date precipitation 39.09 27.84  
Sea Level Pressure  
Sea Level Pressure 29.61 in    
Wind  
Wind Speed 16 mph ()    
Max Wind Speed 26 mph    
Max Gust Speed 44 mph    
Visibility 9.9 miles    
Events Rain    
T = Trace of Precipitation, MM = Missing Value Source: Averaged Metar Reports

Daily Weather History Graph

Daily Weather History Graph

Search for Another Location

Airport or City:

Astronomy

Oct. 22, 2019 Rise Set
Actual Time 7:12 AM CDT 5:59 PM CDT
Civil Twilight 6:43 AM CDT 6:27 PM CDT
Nautical Twilight 6:10 AM CDT 7:00 PM CDT
Astronomical Twilight 5:38 AM CDT 7:32 PM CDT
Moon 12:12 AM CDT (10/22) 3:16 PM CDT (10/22)
Length of Visible Light 11h 44m
Length of Day
10h 47m
Last Quarter, 37% of the Moon is Illuminated
Oct 22
Last Quarter
Oct 27
New
Nov 4
First Quarter
Nov 12
Full
Nov 19
Last Quarter

Hourly Weather History & Observations

Time (CDT) Temp. Dew Point Humidity Pressure Visibility Wind Dir Wind Speed Gust Speed Precip Events Conditions
12:52 AM 53.1 °F 39.0 °F 59% 29.51 in 10.0 mi SSW 18.4 mph 28.8 mph N/A   Clear
1:52 AM 52.0 °F 39.0 °F 61% 29.50 in 10.0 mi South 18.4 mph 28.8 mph N/A   Partly Cloudy
2:52 AM 52.0 °F 39.0 °F 61% 29.49 in 10.0 mi South 21.9 mph 32.2 mph N/A   Mostly Cloudy
3:52 AM 52.0 °F 39.0 °F 61% 29.47 in 10.0 mi SSW 18.4 mph 31.1 mph N/A   Overcast
4:52 AM 51.1 °F 39.0 °F 63% 29.48 in 10.0 mi SW 19.6 mph 43.7 mph N/A   Mostly Cloudy
5:52 AM 50.0 °F 39.9 °F 68% 29.48 in 10.0 mi SW 15.0 mph 29.9 mph N/A   Mostly Cloudy
6:48 AM 50.0 °F 39.2 °F 66% 29.49 in 10.0 mi WSW 20.7 mph 35.7 mph 0.00 in Rain Light Rain
6:52 AM 50.0 °F 39.9 °F 68% 29.49 in 10.0 mi SSW 19.6 mph 35.7 mph 0.00 in   Overcast
7:07 AM 50.0 °F 39.9 °F 68% 29.49 in 10.0 mi SW 20.7 mph 31.1 mph N/A   Overcast
7:52 AM 48.9 °F 41.0 °F 74% 29.50 in 7.0 mi SW 16.1 mph 31.1 mph 0.01 in Rain Light Rain
8:52 AM 48.9 °F 41.0 °F 74% 29.53 in 10.0 mi SW 17.3 mph 33.4 mph 0.01 in   Overcast
9:52 AM 48.9 °F 41.0 °F 74% 29.55 in 10.0 mi WSW 15.0 mph 31.1 mph 0.00 in   Overcast
10:52 AM 48.9 °F 39.9 °F 71% 29.57 in 10.0 mi WSW 20.7 mph 36.8 mph 0.00 in   Overcast
11:52 AM 48.9 °F 39.0 °F 69% 29.60 in 10.0 mi WSW 15.0 mph 27.6 mph N/A   Overcast
12:52 PM 48.0 °F 39.0 °F 71% 29.62 in 10.0 mi WSW 19.6 mph 28.8 mph N/A   Overcast
1:52 PM 48.0 °F 37.9 °F 68% 29.64 in 10.0 mi SW 19.6 mph 29.9 mph N/A   Overcast
2:32 PM 48.9 °F 37.0 °F 64% 29.64 in 10.0 mi WSW 18.4 mph 34.5 mph N/A   Overcast
2:52 PM 50.0 °F 36.0 °F 59% 29.65 in 10.0 mi WSW 18.4 mph 29.9 mph N/A   Overcast
3:52 PM 50.0 °F 35.1 °F 57% 29.68 in 10.0 mi WSW 17.3 mph 31.1 mph N/A   Overcast
4:52 PM 51.1 °F 35.1 °F 54% 29.70 in 10.0 mi WSW 16.1 mph 31.1 mph N/A   Overcast
6:52 PM 50.0 °F 35.1 °F 57% 29.75 in 10.0 mi SW 10.4 mph 19.6 mph N/A   Overcast
7:52 PM 51.1 °F 36.0 °F 56% 29.76 in 10.0 mi WSW 15.0 mph 26.5 mph N/A   Overcast
8:52 PM 51.1 °F 34.0 °F 52% 29.77 in 10.0 mi WSW 11.5 mph 25.3 mph N/A   Overcast
9:52 PM 51.1 °F 32.0 °F 48% 29.78 in 10.0 mi WSW 11.5 mph 27.6 mph N/A   Overcast
10:52 PM 48.9 °F 30.0 °F 48% 29.80 in 10.0 mi WSW 9.2 mph 23.0 mph N/A   Clear
11:52 PM 46.9 °F 30.0 °F 52% 29.81 in 10.0 mi WSW 12.7 mph 21.9 mph N/A   Clear